Location: Bovenkerk
(52.2915°N, 4.8336°E)
Time: 02:11:06
(UTC+00:00)

Cosmos 1340 Rocket - Pass Details

Date: 09 April 2020
Orbit: 529 x 559 km, 81.2° (Epoch: 06 June)

Event Time Altitude Azimuth Distance (km) Brightness Sun altitude
Rises 19:04:27 0° 170° (S) 2,727 6.1 -5.9°
Reaches altitude 10° 19:06:43 10° 162° (SSE) 1,833 5.1 -6.3°
Maximum altitude 19:10:27 38° 95° (E) 861 3.4 -6.8°
Drops below altitude 10° 19:14:12 10° 27° (NNE) 1,832 5.5 -7.3°
Sets 19:16:28 0° 19° (NNE) 2,725 6.4 -7.6°
